Tracking 29892 objects as of 21-Nov-2024
HD Live streaming from Space Station
objects crossing your sky now

STARLINK-30313

Track STARLINK-30313 now!
10-day predictions
STARLINK-30313 is classified as:


NORAD ID: 57676
Int'l Code: 2023-124P
Perigee: 469.7 km
Apogee: 471.0 km
Inclination: 53.2 °
Period: 93.9 minutes
Semi major axis: 6841 km
RCS: Unknown
Launch date: August 22, 2023
Source: United States (US)
Launch site: AIR FORCE WESTERN TEST RANGE (AFWTR)
Your satellite tracking list
Your tracking list is empty




NASA's NSSDC Master Catalog

Two Line Element Set (TLE):
1 57676U 23124P   24325.78790175  .00001054  00000-0  42527-4 0  9997
2 57676  53.1614 248.6329 0000978 121.8249 238.2849 15.34220931 71002
Source of the keplerian elements: AFSPC